Regional Weather Roundup
Issued by NWS Goodland, KS

Home | Current Version | Previous Version | Graphics & Text | Print | Product List | Glossary On
Versions: 1 2 3 4 5 6 7 8 9 10 11 12 13 14 15 16 17 18 19 20 21 22 23 24 25 26 27 28 29 30 31 32 33 34 35 36 37 38 39 40 41 42 43 44 45 46 47 48 49 50
365
ASUS43 KGLD 252008
RWRGLD

GOODLAND FORECAST AREA HOURLY WEATHER ROUNDUP
NATIONAL WEATHER SERVICE GOODLAND KS
200 PM MDT THU MAY 25 2017

...OFFICIAL OBSERVATIONS...

CITY           SKY/WX    TMP DP  RH WIND       PRES   REMARKS
GOODLAND KS    SUNNY     84  51  31 E10       29.52S
HILL CITY KS   SUNNY     81  54  39 S7        29.48F
IMPERIAL NEB   SUNNY     79  52  38 NE8G18    29.53R
MCCOOK NEB     SUNNY     79  54  41 E9        29.49S
AKRON CO       MOSUNNY   69  49  48 N32G40    29.57F THUNDER
BURLINGTON CO  SUNNY     84  53  34 MISG      29.53F
LIMON CO       CLOUDY    75  29  18 CALM      29.57F
$$

...UNOFFICIAL OBSERVATIONS...

CITY           SKY/WX    TMP DP  RH WIND       PRES   REMARKS
LENORA KS        N/A     75  32  20 MISG        N/A
NORTON KS      SUNNY     75  52  43 SE6       29.49S
SHARON SPRINGS   N/A     86  57  37 NE12        N/A
TRENTON NEB      N/A     75  32  20 E7          N/A
KIT CARSON CO    N/A     86  41  20 MISG        N/A
YUMA CO        FAIR      73  48  40 N16       29.56R
$$




USA.gov is the U.S. government's official web portal to all federal, state and local government web resources and services.